User: anonymous   Login
Location: Unspecified
(0.0000°N, 0.0000°E)
Time: 16:29:37
(UTC+00:00)
Language:

OPTUS 1C - Orbit

View from above orbital plane
View from above orbital plane
View from above satellite
View from above satellite

Ground track
Ground track

The orbit data is extracted from the following two-line orbital elements,

1 27831U 03028B   14295.59154872 -.00000149  00000-0  00000+0 0  2577
2 27831 000.0373 131.4544 0004094 071.0978 197.3864 01.00273210 41657
Epoch (UTC): 22 October 2014 14:11:49
Eccentricity: 0.0004094
inclination: 0.0373°
perigee height: 35768 km
apogee height: 35803 km
right ascension of ascending node: 131.4544°
argument of perigee: 71.0978°
revolutions per day: 1.00273210
mean anomaly at epoch: 197.3864°
orbit number at epoch: 4165

The dashed part of the orbit path shows where the satellite is in the earth's shadow,  

DLR